Theta_e
318 319 321 322 323 323 321 324 327 329 342 342 345 341 340 347 361 362 364 366 366 366 349 347 347 348 349 350 351 360 362 362 362 362 362 362 363 363 365 363 363 362 363 363
319 319 320 323 324 323 323 323 325 326 344 340 344 349 359 356 361 362 362 365 364 365 356 351 353 350 349 350 351 357 361 362 361 361 363 362 364 364 366 366 363 362 363 362
320 319 319 321 323 324 325 324 325 330 347 347 355 356 355 357 360 359 360 363 363 362 363 367 360 353 352 351 351 354 358 360 361 360 363 364 364 366 366 364 364 364 363 362
321 322 324 319 320 322 324 339 342 343 345 344 354 353 353 353 355 358 358 359 359 359 361 364 366 360 356 354 353 354 357 359 360 361 361 364 365 366 365 364 364 362 364 364
322 321 321 322 332 334 334 344 342 344 346 349 353 353 358 353 353 351 348 348 351 356 361 364 365 366 362 362 358 356 358 359 360 362 362 364 365 366 366 365 363 364 363 367
317 323 322 335 332 332 330 347 340 343 344 345 348 357 354 347 344 344 346 344 345 350 363 361 360 365 359 363 367 364 360 359 360 361 363 364 365 367 366 365 364 366 366 367
316 319 329 333 334 332 340 343 336 339 339 344 349 347 342 340 340 339 341 340 340 345 360 357 357 363 363 362 363 364 368 362 362 362 364 364 367 366 366 366 366 368 368 368
317 319 321 333 335 340 335 335 334 335 335 343 345 343 340 337 336 334 333 334 335 338 351 349 350 353 365 363 366 362 362 366 366 366 367 367 368 368 368 367 368 370 368 367
327 329 329 330 332 331 331 331 331 332 332 334 342 340 338 336 334 333 331 332 333 338 339 339 341 342 343 351 366 366 362 364 366 367 368 369 370 370 370 368 370 369 365 362
323 326 328 327 327 328 329 330 327 328 331 331 338 339 337 335 332 330 330 330 331 332 335 334 336 337 336 344 357 369 364 365 366 367 369 369 371 371 371 370 369 370 364 360
323 318 324 323 325 325 327 328 328 327 330 330 333 336 335 334 330 328 328 327 327 327 328 331 332 334 334 340 351 365 368 367 368 368 368 369 371 372 371 370 368 370 363 363
320 313 317 320 321 322 325 326 327 328 330 329 328 333 333 334 331 328 326 325 325 326 326 326 329 332 332 336 346 358 365 368 367 368 368 369 371 369 371 370 369 369 368 364
312 311 313 316 319 320 322 322 323 326 326 329 327 327 330 330 331 328 326 325 324 325 325 324 326 327 329 335 345 354 359 365 368 369 368 368 365 363 356 354 365 364 368 366
310 311 316 320 320 318 318 319 322 326 325 325 327 326 327 328 328 327 327 324 322 321 322 325 323 325 331 336 342 350 351 358 361 367 367 369 362 357 355 356 353 352 366 362
311 313 317 317 317 316 317 320 322 325 324 323 323 325 325 325 325 325 323 322 322 321 320 323 323 323 328 335 339 342 341 343 353 359 363 364 363 359 357 359 357 351 353 357
310 313 314 315 314 315 316 318 320 322 322 323 322 322 324 321 320 321 322 320 319 318 319 319 322 321 326 329 337 339 342 344 345 348 349 357 359 362 362 358 352 352 353 354
310 312 312 313 312 314 315 315 318 319 320 321 322 321 321 319 319 317 318 319 317 315 316 317 319 320 323 326 330 335 339 345 347 345 344 344 347 345 356 354 354 351 349 348
306 305 307 309 310 312 314 315 316 317 318 319 319 319 319 319 317 315 315 315 315 313 314 315 317 320 321 322 326 329 333 339 343 339 336 336 340 349 349 347 346 344 343 341
304 305 306 307 308 311 312 313 315 315 315 316 316 313 312 311 315 313 312 310 310 312 313 312 314 317 319 321 322 324 325 328 329 334 337 332 331 330 332 335 336 337 342 344
306 306 307 307 308 308 309 309 310 312 313 314 314 310 308 308 309 311 308 307 307 310 309 307 312 318 319 320 320 320 321 322 323 324 326 327 326 325 326 327 329 329 333 334
306 307 307 307 308 308 307 307 308 309 309 308 310 311 307 305 304 305 308 306 305 308 306 307 311 318 318 318 318 320 319 319 319 320 320 319 319 317 318 318 319 323 322 327
308 308 307 308 308 308 308 307 305 308 308 308 308 307 308 307 304 304 303 304 305 305 305 305 309 315 316 316 315 315 319 317 317 318 318 316 315 314 313 313 313 317 315 317
310 309 308 309 309 309 309 308 308 307 307 307 306 308 306 306 305 305 304 304 305 304 304 304 307 312 312 313 312 311 313 316 316 316 316 315 315 313 313 312 312 311 311 310
308 306 306 308 309 308 309 308 308 308 307 307 306 305 306 306 305 305 305 304 305 305 304 304 304 307 309 311 309 309 309 311 313 313 313 314 314 314 312 311 311 310 309 308
306 306 305 305 308 310 308 308 308 308 308 308 308 305 305 305 305 305 305 304 304 304 305 303 303 304 305 308 308 306 307 307 308 308 309 309 309 310 312 310 309 308 307 305
304 304 304 304 304 303 304 305 306 305 306 307 307 306 305 305 305 305 304 304 304 304 304 304 303 303 303 306 307 305 305 305 305 304 304 305 305 306 306 306 304 303 301 301
304 302 305 305 305 303 303 305 305 305 303 304 306 305 305 305 305 305 304 304 304 304 304 303 303 302 303 304 304 306 306 305 305 304 303 303 302 303 302 302 301 300 299 298
Wind_Speed
10 13 13 12 16 12 9 8 5 4 7 11 12 15 8 9 12 10 13 13 12 4 18 22 24 29 33 35 34 38 36 33 35 34 31 28 25 22 19 19 19 18 14 12
7 12 13 13 16 14 9 10 8 8 9 12 6 9 15 9 15 11 11 15 14 16 5 17 22 28 33 35 37 39 36 35 34 33 28 28 25 22 19 19 19 17 15 13
5 9 11 9 8 9 9 7 6 2 11 22 11 13 10 11 11 5 11 13 13 10 10 11 12 26 30 35 39 38 36 33 35 34 29 26 25 22 22 22 20 18 14 12
4 7 4 8 11 13 8 22 22 10 9 16 21 11 10 8 8 12 13 13 13 11 17 22 17 22 26 32 34 36 34 34 35 33 32 27 24 24 23 23 22 19 16 14
1 3 8 11 6 8 7 16 22 12 16 6 16 16 13 10 11 11 12 11 15 19 19 22 24 10 22 26 31 31 31 34 35 34 32 28 26 26 26 26 23 20 17 16
4 3 4 5 16 16 12 7 18 13 11 18 10 9 6 12 13 12 15 18 22 24 17 25 26 21 15 17 22 26 29 32 34 33 32 31 29 28 29 28 26 20 19 18
6 5 1 11 13 13 5 3 13 13 14 7 5 5 6 11 11 14 14 17 21 23 15 20 25 24 15 17 20 20 22 29 31 32 32 31 28 30 30 28 25 22 21 20
4 3 5 16 8 6 4 4 7 11 13 12 10 12 11 10 10 12 11 16 19 17 18 21 26 28 14 6 10 22 23 23 29 29 29 30 30 31 31 30 26 24 22 21
3 3 3 11 12 6 5 6 7 8 11 14 10 11 10 11 11 11 14 13 14 15 16 22 27 26 22 19 10 21 25 25 26 27 28 27 30 31 29 31 25 24 22 23
2 11 9 12 12 13 14 11 7 9 8 12 8 9 9 10 10 11 18 20 22 20 18 22 26 25 24 20 12 10 23 23 26 28 29 28 30 31 26 26 24 24 23 21
3 11 6 14 13 13 13 16 13 7 8 12 9 10 9 9 8 13 17 21 23 23 23 23 25 27 28 20 13 1 11 17 22 26 28 25 28 27 26 27 28 27 28 30
2 10 6 9 9 12 11 13 9 10 7 12 16 8 11 9 11 14 18 23 23 25 26 29 33 30 28 21 12 6 2 14 21 25 29 25 29 25 27 25 29 26 29 29
3 13 13 15 8 13 10 11 13 7 11 6 14 16 11 9 8 12 15 17 20 19 22 31 26 20 21 21 14 11 7 7 20 24 27 24 30 29 21 13 29 31 30 29
8 10 11 2 4 9 11 16 19 3 11 14 15 18 16 14 14 14 12 14 19 20 21 17 20 22 23 20 15 16 16 10 9 20 26 25 27 25 26 22 17 20 35 30
10 9 3 4 7 7 12 11 13 9 6 10 16 15 16 15 14 14 17 17 15 18 21 20 23 29 24 18 16 33 32 31 21 10 16 27 29 27 27 24 23 27 28 30
11 7 6 5 5 6 8 11 9 8 9 9 10 13 13 18 19 18 16 17 18 18 19 22 22 28 25 24 13 21 36 39 33 26 29 10 9 24 27 26 27 23 21 22
5 5 8 7 7 7 6 8 9 9 10 9 10 14 18 15 17 17 19 17 19 22 22 23 23 27 28 29 22 14 29 39 34 26 26 22 30 25 24 25 26 18 12 15
7 6 11 9 7 6 5 10 13 13 6 11 18 16 15 12 13 14 19 19 19 22 27 26 24 24 28 29 29 26 20 26 32 23 24 26 21 25 16 20 22 21 17 17
13 9 11 11 9 9 13 15 12 10 13 14 16 18 20 22 13 14 18 20 20 19 26 26 25 26 25 27 26 27 31 36 25 23 22 19 26 23 23 23 23 20 18 18
9 14 10 8 13 22 21 19 21 14 15 14 17 19 19 17 19 14 21 22 23 20 21 28 28 25 28 25 28 28 28 29 28 27 28 25 21 20 19 26 26 26 25 15
12 6 4 4 6 17 20 20 22 15 19 19 19 17 17 21 23 24 17 16 24 21 26 30 31 23 24 23 24 23 27 26 26 27 26 24 23 19 13 18 21 31 26 18
19 17 12 11 9 11 15 21 15 8 15 18 15 18 12 11 19 20 21 19 18 20 26 31 27 24 23 24 25 27 21 27 25 23 22 23 22 23 24 28 31 30 18 17
6 8 7 7 9 11 12 14 13 12 8 10 17 9 15 18 14 14 13 22 15 24 27 29 28 20 21 22 23 25 27 21 21 23 21 24 24 25 26 28 25 22 22 21
8 9 10 3 3 6 5 3 6 8 9 10 11 10 13 15 14 14 13 20 22 16 24 25 28 25 22 21 24 24 26 27 23 25 24 21 23 20 24 24 21 20 20 20
5 3 6 9 8 4 1 2 3 3 7 10 4 12 15 14 8 10 14 16 18 19 20 22 22 25 25 20 22 23 19 23 23 25 24 24 23 22 18 19 18 17 18 17
2 4 3 4 7 12 11 17 17 20 19 12 14 10 12 9 13 13 12 12 14 15 17 19 20 22 25 23 17 21 21 19 20 21 21 20 20 20 20 19 18 17 16 15
8 3 11 5 3 7 7 11 12 12 11 9 11 11 18 13 13 15 14 14 14 12 11 14 15 17 22 19 20 17 16 15 15 16 17 16 15 18 17 16 16 15 13 14
Wind_Direction
317 326 318 313 315 313 237 246 234 279 163 175 179 145 135 93 74 40 323 35 44 42 193 186 182 179 184 186 184 186 185 191 199 209 213 213 214 217 217 219 226 237 239 240
305 298 294 299 301 304 260 254 279 262 33 112 60 31 51 45 67 40 325 26 25 18 151 168 176 174 177 179 181 185 183 190 197 202 207 210 211 209 206 218 225 234 229 230
276 290 312 307 281 300 325 259 269 275 139 107 50 54 54 48 49 28 5 14 25 16 30 43 160 172 175 179 183 184 184 186 197 201 202 205 207 204 203 216 220 226 222 217
295 343 283 256 287 287 289 31 23 59 54 129 121 101 74 65 45 22 16 11 7 2 11 15 19 174 176 179 180 183 182 187 192 197 201 204 204 201 200 208 213 215 210 211
219 280 280 290 16 357 22 32 5 19 39 25 98 80 59 57 51 29 4 358 1 349 3 5 6 356 166 175 180 180 180 185 190 195 197 200 201 198 199 203 205 210 205 202
312 279 248 10 338 319 318 49 345 13 29 354 9 87 54 44 40 16 1 0 351 342 6 23 4 357 180 171 172 178 182 186 192 195 197 197 200 195 199 204 205 204 200 207
252 249 343 338 349 309 47 12 319 15 16 353 34 72 75 41 36 18 360 356 350 348 10 23 13 9 201 177 184 184 177 190 192 196 198 197 198 196 200 203 202 200 196 198
233 255 271 346 38 56 221 158 19 7 14 26 59 52 52 45 26 15 17 0 356 352 3 24 24 18 359 141 202 188 188 186 189 193 194 195 195 196 199 197 198 190 193 184
16 115 73 43 68 60 351 65 57 19 12 7 67 53 39 37 21 10 16 22 11 5 13 24 23 15 357 355 4 193 188 192 192 195 196 194 195 192 191 197 195 182 175 170
351 17 42 36 27 9 12 23 39 44 24 19 43 63 49 36 21 9 9 13 13 18 20 25 17 4 348 338 353 192 190 195 194 192 193 196 195 191 190 192 194 179 178 168
25 16 3 34 21 5 0 10 12 41 31 30 50 71 68 59 25 22 24 17 20 19 12 11 16 8 346 335 347 164 198 199 194 194 191 196 189 191 196 203 198 185 180 187
333 315 336 331 352 10 352 1 351 23 37 30 27 46 56 53 43 36 36 28 23 14 11 9 12 7 340 343 353 5 251 215 200 192 195 198 186 190 203 206 205 205 207 204
281 311 303 294 316 3 345 348 341 341 36 35 41 30 64 56 64 56 52 41 29 21 21 18 11 351 338 350 23 30 17 337 208 197 197 191 189 188 177 186 209 208 204 211
275 278 285 22 6 355 350 340 346 61 57 44 39 36 34 59 58 52 47 60 43 30 26 15 3 356 13 12 19 57 24 13 324 228 210 196 193 187 180 171 160 172 184 188
344 315 266 317 22 9 354 12 357 339 90 58 45 34 38 44 42 50 48 39 45 37 23 15 10 3 7 14 24 56 41 28 25 348 248 221 210 189 181 170 157 146 150 173
315 298 312 38 17 19 18 30 349 337 36 79 62 32 42 59 36 31 40 39 42 30 20 17 11 5 11 14 25 48 56 49 41 31 21 9 236 202 176 148 141 143 147 155
358 34 360 8 18 14 14 41 336 321 9 35 91 64 53 68 51 31 22 29 47 32 21 16 12 20 26 27 38 29 62 60 55 21 14 21 40 351 92 113 119 127 142 169
58 45 36 27 1 339 343 32 354 349 352 60 72 73 61 49 68 45 33 29 30 30 25 19 18 18 32 34 37 44 51 80 69 56 31 33 48 63 44 57 100 104 109 132
59 74 44 13 342 50 50 31 15 4 356 79 68 66 51 38 76 62 46 30 25 28 21 17 21 30 34 40 38 40 52 66 73 85 85 56 58 57 71 77 80 85 103 106
70 68 60 26 40 58 52 29 31 20 8 69 83 79 63 50 50 56 49 35 32 31 24 24 33 43 44 51 46 47 51 56 57 54 60 62 57 58 55 71 78 78 80 58
162 171 107 68 37 69 70 50 34 6 39 35 45 97 89 70 59 46 38 32 24 27 26 29 36 54 50 50 53 57 55 57 54 56 59 57 54 41 41 66 63 69 55 55
169 170 176 142 146 169 143 105 76 21 58 44 36 56 101 92 65 50 43 31 24 31 27 31 37 55 56 60 54 50 62 62 61 60 65 62 57 47 39 44 46 62 59 52
66 102 94 104 123 129 103 135 149 114 75 74 60 79 78 67 73 55 34 31 38 38 32 30 38 63 60 63 56 55 54 68 66 66 68 64 61 55 51 49 51 46 48 41
80 54 38 56 84 90 72 71 91 114 122 93 79 82 75 79 57 50 46 36 35 42 33 28 28 40 54 73 71 58 47 50 65 65 63 68 62 57 58 59 58 50 44 38
5 49 46 358 60 136 18 225 151 115 109 78 122 120 87 70 73 69 60 55 39 35 36 35 28 27 31 61 85 67 58 49 63 62 61 58 54 53 60 68 68 63 54 42
254 101 129 49 47 55 31 46 58 51 48 78 54 61 86 70 54 56 62 63 55 45 34 45 32 23 23 37 74 83 75 66 72 74 68 61 55 51 55 69 66 59 48 41
228 245 181 199 94 102 78 75 60 50 45 46 61 47 65 73 54 42 43 48 44 36 45 50 36 22 23 35 35 49 79 74 77 88 86 74 67 59 56 60 54 45 39 37